カタログに戻る

COSMOS 1798

運用中軍事LEO
NORAD 17142·PAYLOAD·🇷🇺 Russia

打ち上げ Nov 21, 1986 から Plesetsk Cosmodrome

Loading…

次のパス (今後24時間)

TLE

最新Source: Space-Track

元期: Sep 14, 2026, 22:24 UTC

1 17142U 86092E   26257.93382159 -.00000029  00000-0 -81415-4 0  9998
2 17142  74.0113  71.4372 0027899 104.4704 328.6214 12.53477827821904

AllMySatでCOSMOS 1798をリアルタイム追跡

Download on the App Store